Location: Moscow
(38.3171°N, 79.0889°W)
Time: 02:17:12
(UTC+00:00)

CZ-4C R/B - Pass Details

Date: 07 November 2025
Orbit: 487 x 1492 km, 63.4° (Epoch: 08 December)

Event Time Altitude Azimuth Distance (km) Brightness Sun altitude
Rises 23:48:36 0° 251° (WSW) 2,703 6.3 -19.6°
Reaches altitude 10° 23:51:02 10° 268° (W) 1,911 5.3 -20.0°
Maximum altitude 23:54:22 22° 320° (NW) 1,450 3.8 -20.7°
Drops below altitude 10° 23:58:19 10° 10° (N) 2,301 4.3 -21.5°
Enters shadow 23:59:03 - 15° (NNE) 2,543 4.5 -21.6°
